Weather in Alytus

Lithuania     54˚24′37″N   24˚01′28″E
temp.,
°C
wind,
m/s
gust,
m/s
humid.,
%
clouds,
%
prec.,
mm/h
press.,
hPa
HPBL,
m
1 december, tue
tue123:00+1˚ssw488597 0.0 1023444
02:00ssw499098 0.1 1024544
05:00−1˚ssw4792100 0.0 1024429
08:00−1˚s4786100 0.0 1026537
11:00−1˚s488060 0.0 1026496
14:00sse477431 0.0 1027592
17:00−2˚se38880 0.0 1028254
20:00−3˚sse48880 0.0 1029286
2 december, wed
wed223:00−3˚sse37870 0.0 1030262
02:00−3˚se36861 0.0 1032233
05:00−4˚se368619 0.0 1030247
08:00−4˚se368815 0.0 1031228
11:00−2˚se35801 0.0 1030273
14:00−1˚ese35761 0.0 1029317
17:00−3˚ese37880 0.0 1027215
20:00−3˚se38931 0.0 1026271
3 december, thu
thu323:00−3˚se379666 0.0 1025262
02:00−3˚sse379679 0.0 1024287
05:00−2˚se368896 0.0 1022457
08:00−3˚se489494 0.0 1021330
11:00−1˚sse598694 0.0 1020666
14:00sse598494 0.1 1019816
17:00−1˚se5118991 0.0 1018552
20:00se6128393 0.0 1017744
4 december, fri
fri423:00sse7138396 0.0 1016707
02:00se7158398 0.0 1015683
05:00se7158597 0.0 1014645
08:00se8168499 0.0 1013631
11:00+2˚se71587100 0.0 1013783
14:00+4˚se71587100 0.0 1012863
17:00+4˚se71686100 0.0 1011900
20:00+4˚se81785100 0.0 1011752
5 december, sat
sat523:00+4˚se8178693 0.0 1011743
02:00+4˚se8168897 0.0 1011682
05:00+4˚se71589100 0.0 1011587
08:00+4˚se71592100 0.1 1012634
11:00+5˚se71490100 0.1 1012631
14:00+6˚se71488100 0.1 1013718
17:00+6˚se71488100 0.0 1013613
20:00+6˚se71489100 0.0 1013635